FENGYUN 1C DEB, 30548

Orbit data source: Space-Track

FENGYUN 1C DEB, 30548 is space debris in SSO originally from a launch on Mon, 10 May 1999 UTC launched from the Taiyaun Space Center, China (TSC). Fengyun 1C debris stems from the Chinese weather satellite Fengyun-1C, which was intentionally destroyed by a Chinese anti-satellite missile in 2007. This event dramatically increased the amount of space debris, with thousands of trackable fragments posing hazards to satellites and human spaceflight. The Fengyun 1C debris cloud has become a focal point in discussions about space sustainability and the need for international regulations to prevent the creation of new debris.

Loading next visibility...
Identifier
30548, 1999-025AKN
Orbit
SSO
Country
Flag of CNCN / PRC
Related business
Manufacturer
Unknown
Mission
Spacecraft
Bus & Motor
Unknown
Mass
Unknown
Launch date (UTC)
1999-05-10 (27 years ago)
Launch vehicle
Unknown
Launch site
Taiyaun Space Center, China (TSC)
Object type
Payload
Rocket body
Debris
Shape & HBR
Unknown shape, 0.1 m
Radar Cross Section
Small (<0.1 m²)

Expand to show TLE details & history
Last TLE update: 3 days ago

TLE from 3 days ago
0 FENGYUN 1C DEB
1 30548U 99025AKN 26205.56982385  .00004082  00000-0  16036-2 0  9998
2 30548  99.6757 132.0477 0067847  60.5517 113.6969 14.28677039172894
Epoch: 2026-07-24T13:40Z
TLE epoch observation values (Epoch: 2026-07-24T13:40:32.780Z)
Latitude
4.88433°
Longitude
165.44694°
Altitude
818.391 km
Speed
7.434 km/s
True Right ascension
20h 51m 30s
True Declination
4° 51' 20"
Sunlit
Object was in full shadow at epoch
Visualization orbit readout
Latitude
Unknown
Longitude
Unknown
Altitude
Unknown
Speed
Unknown
Apparent Right ascension
Unknown
Apparent Declination
Unknown
Sunlit
N/A
Visualization observer readout
Local Sidereal Time
00:27:52
Azimuth
Unknown
Elevation
Unknown
Doppler factor
Unknown
Orbital elements
Apogee altitude
842.009 km
Perigee altitude
744.696 km
Semi-major axis
7,171.489 km
Eccentricity
0.00678
Inclination
99.6757°
RAAN
132.0477°
Arg. of periapsis
60.5517°
True anomaly
114.40638°
Mean anomaly
113.6969°
Eccentric anomaly
114.05188°
Mean motion
3.57379 °/min
Orbital period
100.73 mins
BSTAR
0.0016036
Loading maneuver chart data...
Computing Atmospheric mass density...

Documentation

Showing up to 5 results
|